Tracking 35051 objects as of 17-Aug-2026
HD Live streaming from Space Station
objects crossing your sky now

GALAXY 9

Track GALAXY 9 now!
GALAXY 9 is classified as:


NORAD ID: 23877
Int'l Code: 1996-033A
Launch date: May 24, 1996
Source: United States (US)
Launch site: AIR FORCE EASTERN TEST RANGE (AFETR)

Voice and vision communication; 24 C-band; North America, Caribbean.
Your satellite tracking list
Your tracking list is empty




NASA's NSSDC Master Catalog

Two Line Element Set (TLE):
1 23877U 96033A   26229.22753308 -.00000217  00000-0  00000-0 0  9990
2 23877  12.1758  31.9442 0009956 171.3656  10.4102  0.99545982 46968
Source of the keplerian elements: AFSPC